K0VSC-1 Weather Reports


Display with metric or nautical units.
time (UTC)temp
F
wind
direction
speed
MPH
gust
MPH
rain 1hr
in
rain 24hr
in
rain mn
in
humidity
%
barometer
mb
20260906200156 75 169 5.0 12.0 0.00 0.00 0.00 83 1016.4
20260906195656 76 191 5.0 11.0 0.00 0.00 0.00 82 1016.3
20260906195156 76 194 5.0 10.0 0.00 0.00 0.00 82 1016.4
20260906194729 76 182 6.0 15.0 0.00 0.00 0.00 81 1016.4
20260906194656 76 182 6.0 15.0 0.00 0.00 0.00 81 1016.4
20260906194156 77 191 6.0 14.0 0.00 0.00 0.00 80 1016.1
20260906193656 78 238 4.0 11.0 0.00 0.00 0.00 80 1016.1
20260906193156 78 171 3.0 9.0 0.00 0.00 0.00 78 1015.7
20260906192656 78 130 4.0 10.0 0.00 0.00 0.00 78 1015.6
20260906192156 79 155 5.0 10.0 0.00 0.00 0.00 77 1015.5
20260906192115 79 141 5.0 11.0 0.00 0.00 0.00 77 1015.5
20260906191732 79 141 5.0 11.0 0.00 0.00 0.00 77 1015.5
20260906191656 79 141 5.0 11.0 0.00 0.00 0.00 77 1015.5
20260906191156 79 214 5.0 11.0 0.00 0.00 0.00 76 1015.4
20260906190656 80 147 4.0 10.0 0.00 0.00 0.00 76 1015.4
20260906190156 80 157 4.0 10.0 0.00 0.00 0.00 75 1015.3
20260906185727 80 146 5.0 9.0 0.00 0.00 0.00 75 1015.3
20260906185656 80 146 5.0 9.0 0.00 0.00 0.00 75 1015.3
20260906185157 80 205 6.0 11.0 0.00 0.00 0.00 74 1015.4
20260906184942 81 200 5.0 11.0 0.00 0.00 0.00 74 1015.4
20260906184809 81 200 5.0 11.0 0.00 0.00 0.00 74 1015.4
20260906184727 81 200 5.0 11.0 0.00 0.00 0.00 74 1015.4
20260906184656 81 200 5.0 11.0 0.00 0.00 0.00 74 1015.4
20260906184156 81 184 4.0 12.0 0.00 0.00 0.00 74 1015.3
20260906183656 81 101 4.0 8.0 0.00 0.00 0.00 73 1015.3
20260906183156 81 183 5.0 12.0 0.00 0.00 0.00 74 1015.4
20260906182810 81 130 4.0 11.0 0.00 0.00 0.00 73 1015.5
20260906182728 81 130 4.0 11.0 0.00 0.00 0.00 73 1015.5
20260906182656 81 130 4.0 11.0 0.00 0.00 0.00 73 1015.5
20260906182156 81 150 4.0 7.0 0.00 0.00 0.00 74 1015.5
20260906181728 81 206 4.0 8.0 0.00 0.00 0.00 74 1015.5
20260906181656 81 206 4.0 8.0 0.00 0.00 0.00 74 1015.5
20260906181156 81 85 4.0 12.0 0.00 0.00 0.00 75 1015.5
20260906180656 80 201 4.0 9.0 0.00 0.00 0.00 75 1015.7
20260906180157 80 117 3.0 9.0 0.00 0.00 0.00 75 1015.7
20260906175657 80 180 3.0 8.0 0.00 0.00 0.00 76 1015.8
20260906175230 80 190 4.0 8.0 0.00 0.00 0.00 76 1015.8
20260906175156 80 190 4.0 8.0 0.00 0.00 0.00 76 1015.8
20260906174657 79 245 5.0 8.0 0.00 0.00 0.00 77 1015.6
20260906174157 80 103 5.0 10.0 0.00 0.00 0.00 76 1015.6
20260906173657 80 120 4.0 7.0 0.00 0.00 0.00 76 1015.7
20260906173156 80 169 3.0 7.0 0.00 0.00 0.00 76 1015.7
20260906172657 79 138 3.0 6.0 0.00 0.00 0.00 76 1015.7
20260906172157 79 192 4.0 8.0 0.00 0.00 0.00 76 1015.7
20260906171657 79 172 3.0 10.0 0.00 0.00 0.00 77 1015.6
20260906171157 79 167 3.0 10.0 0.00 0.00 0.00 77 1015.7
20260906170657 79 157 4.0 10.0 0.00 0.00 0.00 77 1015.8
20260906170157 79 186 4.0 11.0 0.00 0.00 0.00 78 1015.8
20260906165657 79 202 3.0 12.0 0.00 0.00 0.00 78 1015.9
20260906165157 78 126 3.0 8.0 0.00 0.00 0.00 80 1016.2
20260906164759 78 124 3.0 10.0 0.00 0.00 0.00 79 1016.4
20260906164728 78 124 3.0 10.0 0.00 0.00 0.00 79 1016.4
20260906164657 78 124 3.0 10.0 0.00 0.00 0.00 79 1016.4
20260906164157 78 114 2.0 9.0 0.00 0.00 0.00 80 1016.5
20260906163657 78 220 2.0 5.0 0.00 0.00 0.00 82 1016.7
20260906163157 77 140 4.0 10.0 0.00 0.00 0.00 82 1016.6
20260906162657 77 128 4.0 8.0 0.00 0.00 0.00 81 1016.5
20260906162157 76 115 4.0 11.0 0.00 0.00 0.00 82 1016.4
20260906162119 76 101 3.0 9.0 0.00 0.00 0.00 83 1016.5
20260906161728 76 101 3.0 9.0 0.00 0.00 0.00 83 1016.5
20260906161657 76 101 3.0 9.0 0.00 0.00 0.00 83 1016.5
20260906161237 76 217 3.0 7.0 0.00 0.00 0.00 83 1016.7
20260906161157 76 217 3.0 7.0 0.00 0.00 0.00 83 1016.7
20260906160657 76 198 3.0 7.0 0.00 0.00 0.00 84 1016.8
20260906160157 75 160 3.0 6.0 0.00 0.00 0.00 84 1016.8
20260906155657 75 134 3.0 6.0 0.00 0.00 0.00 85 1016.8
20260906155157 75 210 3.0 5.0 0.00 0.00 0.00 85 1016.9
20260906155038 75 183 3.0 7.0 0.00 0.00 0.00 85 1016.9
20260906154729 75 183 3.0 7.0 0.00 0.00 0.00 85 1016.9
20260906154657 75 183 3.0 7.0 0.00 0.00 0.00 85 1016.9
20260906154157 75 148 4.0 8.0 0.00 0.00 0.00 86 1016.7
20260906153728 74 150 4.0 11.0 0.00 0.00 0.00 86 1016.5
20260906153657 74 150 4.0 11.0 0.00 0.00 0.00 86 1016.5
20260906153233 74 123 4.0 8.0 0.00 0.00 0.00 86 1016.6
20260906153157 74 123 4.0 8.0 0.00 0.00 0.00 86 1016.6
20260906152733 74 121 4.0 10.0 0.00 0.00 0.00 86 1016.7
20260906152657 74 121 4.0 10.0 0.00 0.00 0.00 86 1016.7
20260906152157 74 119 4.0 9.0 0.00 0.00 0.00 85 1016.6
20260906151743 74 229 4.0 10.0 0.00 0.00 0.00 86 1016.8
20260906151657 74 229 4.0 10.0 0.00 0.00 0.00 86 1016.8
20260906151157 74 172 3.0 8.0 0.00 0.00 0.00 88 1017.0
20260906150804 73 100 3.0 7.0 0.00 0.00 0.00 90 1016.9
20260906150657 73 100 3.0 7.0 0.00 0.00 0.00 90 1016.9
20260906150157 72 227 4.0 8.0 0.00 0.00 0.00 92 1016.9
20260906145657 72 118 4.0 10.0 0.00 0.00 0.00 93 1016.9
20260906145514 71 107 4.0 9.0 0.00 0.00 0.00 94 1017.0
20260906145157 71 107 4.0 9.0 0.00 0.00 0.00 94 1017.0
20260906144729 70 138 3.0 8.0 0.00 0.00 0.00 94 1016.9
20260906144657 70 138 3.0 8.0 0.00 0.00 0.00 94 1016.9
20260906144157 70 115 3.0 6.0 0.00 0.00 0.00 95 1017.2
20260906143733 69 117 4.0 7.0 0.00 0.00 0.00 95 1017.1
20260906143657 69 117 4.0 7.0 0.00 0.00 0.00 95 1017.1
20260906143157 69 133 4.0 7.0 0.00 0.00 0.00 95 1017.1
20260906142728 69 117 3.0 8.0 0.00 0.00 0.00 96 1017.1
20260906142657 69 117 3.0 8.0 0.00 0.00 0.00 96 1017.1
20260906142228 68 126 3.0 6.0 0.00 0.00 0.00 96 1017.3
20260906142157 68 126 3.0 6.0 0.00 0.00 0.00 96 1017.3
20260906141802 68 126 2.0 7.0 0.00 0.00 0.00 96 1017.3
20260906141728 68 126 2.0 7.0 0.00 0.00 0.00 96 1017.3
20260906141657 68 126 2.0 7.0 0.00 0.00 0.00 96 1017.3
20260906141408 68 135 2.0 5.0 0.00 0.00 0.00 96 1017.3
20260906141157 68 135 2.0 5.0 0.00 0.00 0.00 96 1017.3
20260906140730 68 97 2.0 4.0 0.00 0.00 0.00 97 1017.1
20260906140657 68 97 2.0 4.0 0.00 0.00 0.00 97 1017.1
20260906140609 68 107 2.0 6.0 0.00 0.00 0.00 97 1017.0
20260906140348 68 107 2.0 6.0 0.00 0.00 0.00 97 1017.0
20260906140301 68 107 2.0 6.0 0.00 0.00 0.00 97 1017.0
20260906140258 68 107 2.0 6.0 0.00 0.00 0.00 97 1017.0
20260906140203 68 107 2.0 6.0 0.00 0.00 0.00 97 1017.0
20260906140157 68 107 2.0 6.0 0.00 0.00 0.00 97 1017.0
20260906135712 67 129 2.0 5.0 0.00 0.00 0.00 97 1017.1
20260906135657 67 129 2.0 5.0 0.00 0.00 0.00 97 1017.1
20260906135305 67 129 2.0 4.0 0.00 0.00 0.00 97 1017.1
20260906135157 67 129 2.0 4.0 0.00 0.00 0.00 97 1017.1
20260906134657 67 127 2.0 6.0 0.00 0.00 0.00 96 1017.1
20260906134228 66 124 2.0 4.0 0.00 0.00 0.00 96 1017.0
20260906134157 66 124 2.0 4.0 0.00 0.00 0.00 96 1017.0
20260906133657 66 127 3.0 6.0 0.00 0.00 0.00 97 1016.8
20260906133157 66 139 3.0 8.0 0.00 0.00 0.00 97 1016.7
20260906132728 66 119 4.0 5.0 0.00 0.00 0.00 96 1016.7
20260906132657 66 119 4.0 5.0 0.00 0.00 0.00 96 1016.7
20260906132345 66 132 5.0 9.0 0.00 0.00 0.00 96 1016.6
20260906132309 66 132 5.0 9.0 0.00 0.00 0.00 96 1016.6
20260906132228 66 132 5.0 9.0 0.00 0.00 0.00 96 1016.6
20260906132157 66 132 5.0 9.0 0.00 0.00 0.00 96 1016.6
20260906131742 65 114 5.0 10.0 0.00 0.00 0.00 96 1016.5
20260906131657 65 114 5.0 10.0 0.00 0.00 0.00 96 1016.5
20260906131500 65 101 4.0 9.0 0.00 0.00 0.00 96 1016.5
20260906131235 65 101 4.0 9.0 0.00 0.00 0.00 96 1016.5
20260906131157 65 101 4.0 9.0 0.00 0.00 0.00 96 1016.5
20260906130729 65 109 3.0 7.0 0.00 0.00 0.00 97 1016.5
20260906130657 65 109 3.0 7.0 0.00 0.00 0.00 97 1016.5
20260906130230 65 96 2.0 4.0 0.00 0.00 0.00 96 1016.7
20260906130157 65 96 2.0 4.0 0.00 0.00 0.00 96 1016.7
20260906125934 65 85 2.0 4.0 0.00 0.00 0.00 96 1016.8
20260906125728 65 85 2.0 4.0 0.00 0.00 0.00 96 1016.8
20260906125657 65 85 2.0 4.0 0.00 0.00 0.00 96 1016.8
20260906125157 65 82 1.0 3.0 0.00 0.00 0.00 96 1016.7
20260906124800 65 88 1.0 3.0 0.00 0.00 0.00 96 1016.7
20260906124727 65 88 1.0 3.0 0.00 0.00 0.00 96 1016.7
20260906124657 65 88 1.0 3.0 0.00 0.00 0.00 96 1016.7
20260906124230 64 88 1.0 3.0 0.00 0.00 0.00 96 1016.6
20260906124157 64 88 1.0 3.0 0.00 0.00 0.00 96 1016.6
20260906123737 64 88 0.0 2.0 0.00 0.00 0.00 96 1016.5
20260906123657 64 88 0.0 2.0 0.00 0.00 0.00 96 1016.5
20260906123313 64 99 1.0 2.0 0.00 0.00 0.00 96 1016.4
20260906123157 64 99 1.0 2.0 0.00 0.00 0.00 96 1016.4
20260906122733 64 135 2.0 4.0 0.00 0.00 0.00 96 1016.4
20260906122657 64 135 2.0 4.0 0.00 0.00 0.00 96 1016.4
20260906122157 64 128 2.0 4.0 0.00 0.00 0.00 96 1016.4
20260906121657 64 126 2.0 4.0 0.00 0.00 0.00 96 1016.3
20260906121229 64 118 2.0 3.0 0.00 0.00 0.00 96 1016.3
20260906121157 64 118 2.0 3.0 0.00 0.00 0.00 96 1016.3
20260906120743 64 118 2.0 4.0 0.00 0.00 0.00 96 1016.2
20260906120657 64 118 2.0 4.0 0.00 0.00 0.00 96 1016.2
20260906120157 64 120 2.0 4.0 0.00 0.00 0.00 96 1016.2
20260906115657 64 120 3.0 6.0 0.00 0.00 0.00 96 1016.2
20260906115548 64 113 3.0 6.0 0.00 0.00 0.00 96 1016.2
20260906115157 64 113 3.0 6.0 0.00 0.00 0.00 96 1016.2
20260906114913 64 120 3.0 6.0 0.00 0.00 0.00 96 1016.2
20260906114657 64 120 3.0 6.0 0.00 0.00 0.00 96 1016.2
20260906114234 64 129 3.0 6.0 0.00 0.00 0.00 96 1016.3
20260906114157 64 129 3.0 6.0 0.00 0.00 0.00 96 1016.3
20260906113822 64 135 3.0 5.0 0.00 0.00 0.00 96 1016.4
20260906113729 64 135 3.0 5.0 0.00 0.00 0.00 96 1016.4
20260906113657 64 135 3.0 5.0 0.00 0.00 0.00 96 1016.4
20260906113443 64 135 3.0 7.0 0.00 0.00 0.00 96 1016.3
20260906113402 64 135 3.0 7.0 0.00 0.00 0.00 96 1016.3
20260906113228 64 135 3.0 7.0 0.00 0.00 0.00 96 1016.3
20260906113157 64 135 3.0 7.0 0.00 0.00 0.00 96 1016.3
20260906112729 64 120 4.0 7.0 0.00 0.00 0.00 96 1016.2
20260906112657 64 120 4.0 7.0 0.00 0.00 0.00 96 1016.2
20260906112544 64 119 3.0 7.0 0.00 0.00 0.00 96 1016.2
20260906112234 64 119 3.0 7.0 0.00 0.00 0.00 96 1016.2
20260906112213 64 119 3.0 7.0 0.00 0.00 0.00 96 1016.2
20260906112157 64 119 3.0 7.0 0.00 0.00 0.00 96 1016.2
20260906111731 64 126 4.0 6.0 0.00 0.00 0.00 96 1016.3
20260906111709 0 126 4.0 6.0 0.00 0.00 0.00 96 1016.3
20260906111657 64 126 4.0 6.0 0.00 0.00 0.00 96 1016.3
20260906111443 64 129 4.0 7.0 0.00 0.00 0.00 96 1016.3
20260906111251 64 129 4.0 7.0 0.00 0.00 0.00 96 1016.3
20260906111157 64 129 4.0 7.0 0.00 0.00 0.00 96 1016.3
20260906110732 64 126 4.0 7.0 0.00 0.00 0.00 96 1016.3
20260906110657 64 126 4.0 7.0 0.00 0.00 0.00 96 1016.3
20260906110522 64 128 4.0 7.0 0.00 0.00 0.00 96 1016.4
20260906110235 64 128 4.0 7.0 0.00 0.00 0.00 96 1016.4
20260906110157 64 128 4.0 7.0 0.00 0.00 0.00 96 1016.4
20260906105833 64 122 4.0 7.0 0.00 0.00 0.00 96 1016.5
20260906105730 64 122 4.0 7.0 0.00 0.00 0.00 96 1016.5
20260906105657 64 122 4.0 7.0 0.00 0.00 0.00 96 1016.5
20260906105157 64 115 3.0 6.0 0.00 0.00 0.00 96 1016.4
20260906104737 64 113 3.0 6.0 0.00 0.00 0.00 96 1016.4
20260906104657 64 113 3.0 6.0 0.00 0.00 0.00 96 1016.4
20260906104157 64 123 2.0 4.0 0.00 0.00 0.00 96 1016.4
20260906103657 64 88 2.0 3.0 0.00 0.00 0.00 96 1016.4
20260906103157 64 88 2.0 3.0 0.00 0.00 0.00 95 1016.4
20260906103007 64 88 2.0 2.0 0.00 0.00 0.00 95 1016.5
20260906102728 64 88 2.0 2.0 0.00 0.00 0.00 95 1016.5
20260906102657 64 88 2.0 2.0 0.00 0.00 0.00 95 1016.5
20260906102157 64 88 1.0 3.0 0.00 0.00 0.00 95 1016.5
20260906101657 64 88 1.0 3.0 0.00 0.00 0.00 95 1016.5
20260906101228 65 113 1.0 2.0 0.00 0.00 0.00 95 1016.4
20260906101157 65 113 1.0 2.0 0.00 0.00 0.00 95 1016.4
20260906100753 65 113 1.0 2.0 0.00 0.00 0.00 95 1016.4
20260906100657 65 113 1.0 2.0 0.00 0.00 0.00 95 1016.4
20260906100157 65 113 1.0 2.0 0.00 0.00 0.00 95 1016.4
20260906100057 65 113 1.0 2.0 0.00 0.00 0.00 95 1016.4
20260906095729 65 113 1.0 2.0 0.00 0.00 0.00 95 1016.4
20260906095657 65 113 1.0 2.0 0.00 0.00 0.00 95 1016.4
20260906095511 65 113 1.0 2.0 0.00 0.00 0.00 95 1016.3
20260906095157 65 113 1.0 2.0 0.00 0.00 0.00 95 1016.3
20260906094729 65 113 1.0 3.0 0.00 0.00 0.00 95 1016.3
20260906094657 65 113 1.0 3.0 0.00 0.00 0.00 95 1016.3
20260906094157 65 113 1.0 3.0 0.00 0.00 0.00 95 1016.2
20260906093730 65 113 2.0 3.0 0.00 0.00 0.00 95 1016.3
20260906093657 65 113 2.0 3.0 0.00 0.00 0.00 95 1016.3
20260906093157 65 113 3.0 4.0 0.00 0.00 0.00 95 1016.0
20260906093106 65 126 3.0 4.0 0.00 0.00 0.00 95 1015.9
20260906092728 65 126 3.0 4.0 0.00 0.00 0.00 95 1015.9
20260906092657 65 126 3.0 4.0 0.00 0.00 0.00 95 1015.9
20260906092446 65 123 3.0 4.0 0.00 0.00 0.00 95 1015.9
20260906092229 65 91 3.0 8.0 0.00 0.00 0.00 95 1015.6
20260906092157 65 123 3.0 4.0 0.00 0.00 0.00 95 1015.9
20260906091728 65 127 4.0 8.0 0.00 0.00 0.00 95 1015.6
20260906091657 65 127 4.0 8.0 0.00 0.00 0.00 95 1015.6
20260906091157 65 91 3.0 8.0 0.00 0.00 0.00 95 1015.6
20260906090944 65 135 3.0 5.0 0.00 0.00 0.00 95 1015.6
20260906090728 65 135 3.0 5.0 0.00 0.00 0.00 95 1015.6
20260906090657 65 135 3.0 5.0 0.00 0.00 0.00 95 1015.6
20260906090637 65 94 3.0 6.0 0.00 0.00 0.00 95 1015.6
20260906090235 65 94 3.0 6.0 0.00 0.00 0.00 95 1015.6
20260906090158 65 94 3.0 6.0 0.00 0.00 0.00 95 1015.6
20260906085657 65 83 3.0 6.0 0.00 0.00 0.00 95 1015.7
20260906085157 66 96 3.0 6.0 0.00 0.00 0.00 95 1015.7
20260906084809 66 124 3.0 6.0 0.00 0.00 0.00 95 1015.6
20260906084730 66 124 3.0 6.0 0.00 0.00 0.00 95 1015.6
20260906084657 66 124 3.0 6.0 0.00 0.00 0.00 95 1015.6
20260906084231 66 106 3.0 6.0 0.00 0.00 0.00 95 1015.4
20260906084158 66 106 3.0 6.0 0.00 0.00 0.00 95 1015.4
20260906083834 66 88 2.0 4.0 0.00 0.00 0.00 95 1015.4
20260906083800 66 88 2.0 4.0 0.00 0.00 0.00 95 1015.4
20260906083729 66 88 2.0 4.0 0.00 0.00 0.00 95 1015.4
20260906083657 66 88 2.0 4.0 0.00 0.00 0.00 95 1015.4
20260906083339 66 96 3.0 4.0 0.00 0.00 0.00 95 1015.3
20260906083233 66 96 3.0 4.0 0.00 0.00 0.00 95 1015.3
20260906083157 66 96 3.0 4.0 0.00 0.00 0.00 95 1015.3
20260906083059 66 109 2.0 4.0 0.00 0.00 0.00 94 1015.6
20260906082937 66 119 2.0 5.0 0.00 0.00 0.00 95 1015.5
20260906082730 66 119 2.0 5.0 0.00 0.00 0.00 95 1015.5
20260906082657 66 119 2.0 5.0 0.00 0.00 0.00 95 1015.5
20260906082524 66 117 2.0 4.0 0.00 0.00 0.00 95 1015.6
20260906082446 66 117 2.0 4.0 0.00 0.00 0.00 95 1015.6
20260906082232 66 117 2.0 4.0 0.00 0.00 0.00 95 1015.6
20260906082157 66 117 2.0 4.0 0.00 0.00 0.00 95 1015.6
20260906081731 66 125 2.0 4.0 0.00 0.00 0.00 95 1015.6
20260906081657 66 125 2.0 4.0 0.00 0.00 0.00 95 1015.6
20260906081229 66 126 1.0 3.0 0.00 0.00 0.00 95 1015.7
20260906081157 66 126 1.0 3.0 0.00 0.00 0.00 95 1015.7
20260906080728 66 103 1.0 3.0 0.00 0.00 0.00 95 1015.6
20260906080657 66 103 1.0 3.0 0.00 0.00 0.00 95 1015.6
20260906080529 66 103 2.0 3.0 0.00 0.00 0.00 95 1015.6
20260906080230 66 103 2.0 3.0 0.00 0.00 0.00 95 1015.6
20260906080158 66 103 2.0 3.0 0.00 0.00 0.00 95 1015.6
20260906075729 66 120 2.0 4.0 0.00 0.00 0.00 95 1015.5
20260906075657 66 120 2.0 4.0 0.00 0.00 0.00 95 1015.5
20260906075158 66 109 2.0 4.0 0.00 0.00 0.00 94 1015.6
20260906075106 66 89 2.0 3.0 0.00 0.00 0.00 94 1015.7
20260906074729 66 89 2.0 3.0 0.00 0.00 0.00 94 1015.7
20260906074657 66 89 2.0 3.0 0.00 0.00 0.00 94 1015.7
20260906074229 66 50 2.0 4.0 0.00 0.00 0.00 94 1015.8
20260906074157 66 50 2.0 4.0 0.00 0.00 0.00 94 1015.8
20260906074134 66 42 2.0 3.0 0.00 0.00 0.00 94 1015.8
20260906074046 66 42 2.0 3.0 0.00 0.00 0.00 94 1015.8
20260906073851 66 42 2.0 3.0 0.00 0.00 0.00 94 1015.8
20260906073821 66 42 2.0 3.0 0.00 0.00 0.00 94 1015.8
20260906073728 66 42 2.0 3.0 0.00 0.00 0.00 94 1015.8
20260906073657 66 42 2.0 3.0 0.00 0.00 0.00 94 1015.8
20260906073648 66 90 2.0 4.0 0.00 0.00 0.00 93 1015.8
20260906073158 66 90 2.0 4.0 0.00 0.00 0.00 93 1015.8
20260906072740 66 66 2.0 3.0 0.00 0.00 0.00 93 1015.9
20260906072658 66 66 2.0 3.0 0.00 0.00 0.00 93 1015.9
20260906072158 66 81 3.0 6.0 0.00 0.00 0.00 93 1015.8
20260906072105 66 103 3.0 6.0 0.00 0.00 0.00 93 1015.8
20260906071814 66 103 3.0 6.0 0.00 0.00 0.00 93 1015.8
20260906071736 66 103 3.0 6.0 0.00 0.00 0.00 93 1015.8
20260906071658 66 103 3.0 6.0 0.00 0.00 0.00 93 1015.8
20260906071309 67 92 2.0 4.0 0.00 0.00 0.00 93 1015.9
20260906071229 67 92 2.0 4.0 0.00 0.00 0.00 93 1015.9
20260906071158 67 92 2.0 4.0 0.00 0.00 0.00 93 1015.9
20260906070729 67 95 2.0 3.0 0.00 0.00 0.00 93 1016.0
20260906070658 67 95 2.0 3.0 0.00 0.00 0.00 93 1016.0
20260906070603 67 95 2.0 3.0 0.00 0.00 0.00 92 1016.0
20260906070158 67 95 2.0 3.0 0.00 0.00 0.00 92 1016.0
20260906070042 67 91 2.0 3.0 0.00 0.00 0.00 92 1016.3
20260906065804 67 91 2.0 3.0 0.00 0.00 0.00 92 1016.3
20260906065729 67 91 2.0 3.0 0.00 0.00 0.00 92 1016.3
20260906065658 67 91 2.0 3.0 0.00 0.00 0.00 92 1016.3
20260906065231 67 117 1.0 2.0 0.00 0.00 0.00 93 1016.2
20260906065158 67 117 1.0 2.0 0.00 0.00 0.00 93 1016.2
20260906064931 68 117 2.0 3.0 0.00 0.00 0.00 93 1016.2
20260906064807 68 117 2.0 3.0 0.00 0.00 0.00 93 1016.2
20260906064731 68 117 2.0 3.0 0.00 0.00 0.00 93 1016.2
20260906064658 68 117 2.0 3.0 0.00 0.00 0.00 93 1016.2
20260906064526 68 117 2.0 4.0 0.00 0.00 0.00 93 1016.2
20260906064158 68 117 2.0 4.0 0.00 0.00 0.00 93 1016.2
20260906064005 68 107 2.0 3.0 0.00 0.00 0.00 93 1016.2
20260906063730 68 107 2.0 3.0 0.00 0.00 0.00 93 1016.2
20260906063658 68 107 2.0 3.0 0.00 0.00 0.00 93 1016.2
20260906063532 67 107 2.0 4.0 0.00 0.00 0.00 93 1016.4
20260906063245 67 107 2.0 4.0 0.00 0.00 0.00 93 1016.4
20260906063158 67 107 2.0 4.0 0.00 0.00 0.00 93 1016.4
20260906062742 67 107 2.0 3.0 0.00 0.00 0.00 93 1016.3
20260906062658 67 107 2.0 3.0 0.00 0.00 0.00 93 1016.3
20260906062452 67 107 1.0 2.0 0.00 0.00 0.00 93 1016.3
20260906062158 67 107 1.0 2.0 0.00 0.00 0.00 93 1016.3
20260906061944 67 107 1.0 2.0 0.00 0.00 0.00 93 1016.4
20260906061729 67 107 1.0 2.0 0.00 0.00 0.00 93 1016.4
20260906061658 67 107 1.0 2.0 0.00 0.00 0.00 93 1016.4
20260906061435 67 107 1.0 2.0 0.00 0.00 0.00 93 1016.4
20260906061158 67 107 1.0 2.0 0.00 0.00 0.00 93 1016.4
20260906060957 67 83 1.0 2.0 0.00 0.00 0.00 93 1016.4
20260906060728 67 83 1.0 2.0 0.00 0.00 0.00 93 1016.4
20260906060658 67 83 1.0 2.0 0.00 0.00 0.00 93 1016.4
20260906060430 67 52 1.0 3.0 0.00 0.00 0.00 93 1016.3
20260906060158 67 52 1.0 3.0 0.00 0.00 0.00 93 1016.3
20260906055803 67 91 1.0 3.0 0.00 0.00 0.00 93 1016.3
20260906055658 67 91 1.0 3.0 0.00 0.00 0.00 93 1016.3
20260906055229 67 84 2.0 4.0 0.00 0.00 0.00 93 1016.2
20260906055158 67 84 2.0 4.0 0.00 0.00 0.00 93 1016.2
20260906054729 67 90 3.0 4.0 0.00 0.00 0.00 92 1016.2
20260906054658 67 90 3.0 4.0 0.00 0.00 0.00 92 1016.2
20260906054448 67 97 2.0 4.0 0.00 0.00 0.00 92 1016.2
20260906054229 67 97 2.0 4.0 0.00 0.00 0.00 92 1016.2
20260906054158 67 97 2.0 4.0 0.00 0.00 0.00 92 1016.2
20260906053729 67 98 1.0 3.0 0.00 0.00 0.00 92 1016.2
20260906053658 67 98 1.0 3.0 0.00 0.00 0.00 92 1016.2
20260906053449 67 48 1.0 2.0 0.00 0.00 0.00 92 1016.4
20260906053240 67 48 1.0 2.0 0.00 0.00 0.00 92 1016.4
20260906053158 67 48 1.0 2.0 0.00 0.00 0.00 92 1016.4
20260906052729 67 91 2.0 3.0 0.00 0.00 0.00 92 1016.3
20260906052658 67 91 2.0 3.0 0.00 0.00 0.00 92 1016.3
20260906052440 67 91 3.0 4.0 0.00 0.00 0.00 92 1016.3
20260906052158 67 91 3.0 4.0 0.00 0.00 0.00 92 1016.3
20260906051730 67 88 3.0 4.0 0.00 0.00 0.00 92 1016.2
20260906051658 67 88 3.0 4.0 0.00 0.00 0.00 92 1016.2
20260906051536 67 89 2.0 4.0 0.00 0.00 0.00 92 1016.2
20260906051500 67 89 2.0 4.0 0.00 0.00 0.00 92 1016.2
20260906051251 67 89 2.0 4.0 0.00 0.00 0.00 92 1016.2
20260906051158 67 89 2.0 4.0 0.00 0.00 0.00 92 1016.2
20260906050658 67 92 2.0 4.0 0.00 0.00 0.00 92 1016.3
20260906050633 67 98 2.0 4.0 0.00 0.00 0.00 92 1016.2
20260906050239 67 98 2.0 4.0 0.00 0.00 0.00 92 1016.2
20260906050158 67 98 2.0 4.0 0.00 0.00 0.00 92 1016.2
20260906045729 67 90 2.0 3.0 0.00 0.00 0.00 91 1016.1
20260906045658 67 90 2.0 3.0 0.00 0.00 0.00 91 1016.1
20260906045158 68 92 2.0 4.0 0.00 0.00 0.00 91 1016.1
20260906044734 68 91 2.0 5.0 0.00 0.00 0.00 91 1016.2
20260906044658 68 91 2.0 5.0 0.00 0.00 0.00 91 1016.2
20260906044158 68 128 3.0 7.0 0.00 0.00 0.00 90 1016.1
20260906043658 68 125 3.0 6.0 0.00 0.00 0.00 90 1016.0
20260906043554 68 115 3.0 6.0 0.00 0.00 0.00 90 1016.0
20260906043158 68 115 3.0 6.0 0.00 0.00 0.00 90 1016.0
20260906042729 68 117 4.0 6.0 0.00 0.00 0.00 90 1016.0
20260906042658 68 117 4.0 6.0 0.00 0.00 0.00 90 1016.0
20260906042230 69 121 4.0 8.0 0.00 0.00 0.00 90 1015.9
20260906042158 69 121 4.0 8.0 0.00 0.00 0.00 90 1015.9
20260906041658 69 105 5.0 7.0 0.00 0.00 0.00 90 1016.1
20260906041158 69 118 4.0 8.0 0.00 0.00 0.00 89 1016.2
20260906040658 69 121 4.0 6.0 0.00 0.00 0.00 89 1016.3
20260906040229 69 98 4.0 7.0 0.00 0.00 0.00 90 1016.3
20260906040158 69 98 4.0 7.0 0.00 0.00 0.00 90 1016.3
20260906035658 69 115 4.0 8.0 0.00 0.00 0.00 90 1016.1
20260906035519 68 118 3.0 8.0 0.00 0.00 0.00 90 1016.0
20260906035158 68 118 3.0 8.0 0.00 0.00 0.00 90 1016.0
20260906034732 68 92 3.0 6.0 0.00 0.00 0.00 90 1016.2
20260906034658 68 92 3.0 6.0 0.00 0.00 0.00 90 1016.2
20260906034158 68 111 2.0 6.0 0.00 0.00 0.00 90 1016.3
20260906033709 68 90 3.0 4.0 0.00 0.00 0.00 90 1016.4
20260906033658 68 86 2.0 6.0 0.00 0.00 0.00 90 1016.3
20260906033232 68 90 3.0 4.0 0.00 0.00 0.00 90 1016.4
20260906033158 68 90 3.0 4.0 0.00 0.00 0.00 90 1016.4
20260906032730 68 87 4.0 7.0 0.00 0.00 0.00 90 1016.4
20260906032658 68 87 4.0 7.0 0.00 0.00 0.00 90 1016.4
20260906032158 68 92 4.0 6.0 0.00 0.00 0.00 90 1016.4
20260906032053 68 89 4.0 7.0 0.00 0.00 0.00 90 1016.3
20260906031658 68 89 4.0 7.0 0.00 0.00 0.00 90 1016.3
20260906031251 68 87 4.0 6.0 0.00 0.00 0.00 89 1016.1
20260906031158 68 87 4.0 6.0 0.00 0.00 0.00 89 1016.1
20260906030946 68 94 4.0 7.0 0.00 0.00 0.00 89 1016.1
20260906030735 68 94 4.0 7.0 0.00 0.00 0.00 89 1016.1
20260906030658 68 94 4.0 7.0 0.00 0.00 0.00 89 1016.1
20260906030158 69 91 4.0 7.0 0.00 0.00 0.00 89 1016.1
20260906025729 69 86 3.0 6.0 0.00 0.00 0.00 88 1016.1
20260906025658 69 86 3.0 6.0 0.00 0.00 0.00 88 1016.1
20260906025549 69 94 2.0 5.0 0.00 0.00 0.00 87 1016.1
20260906025158 69 94 2.0 5.0 0.00 0.00 0.00 87 1016.1
20260906024732 70 71 2.0 4.0 0.00 0.00 0.00 87 1016.3
20260906024658 70 71 2.0 4.0 0.00 0.00 0.00 87 1016.3
20260906024158 70 73 2.0 6.0 0.00 0.00 0.00 87 1016.5
20260906023658 70 59 2.0 5.0 0.00 0.00 0.00 87 1016.5
20260906023230 70 91 2.0 4.0 0.00 0.00 0.00 86 1016.3
20260906023158 70 91 2.0 4.0 0.00 0.00 0.00 86 1016.3
20260906022658 70 55 2.0 5.0 0.00 0.00 0.00 86 1016.2
20260906022158 70 95 2.0 5.0 0.00 0.00 0.00 86 1016.3
20260906021744 70 98 2.0 4.0 0.00 0.00 0.00 86 1016.2
20260906021708 70 98 2.0 4.0 0.00 0.00 0.00 86 1016.2
20260906021658 70 98 2.0 4.0 0.00 0.00 0.00 86 1016.2
20260906021158 70 52 2.0 3.0 0.00 0.00 0.00 86 1016.2
20260906020658 71 44 2.0 3.0 0.00 0.00 0.00 86 1016.2
20260906020158 71 53 2.0 3.0 0.00 0.00 0.00 86 1016.1
20260906015658 71 57 2.0 3.0 0.00 0.00 0.00 85 1016.1
20260906015549 71 89 2.0 4.0 0.00 0.00 0.00 85 1016.1
20260906015253 71 89 2.0 4.0 0.00 0.00 0.00 85 1016.1
20260906015158 71 89 2.0 4.0 0.00 0.00 0.00 85 1016.1
20260906015100 71 102 2.0 5.0 0.00 0.00 0.00 85 1016.1
20260906014800 71 102 2.0 5.0 0.00 0.00 0.00 85 1016.1
20260906014729 71 102 2.0 5.0 0.00 0.00 0.00 85 1016.1
20260906014658 71 102 2.0 5.0 0.00 0.00 0.00 85 1016.1
20260906014158 71 54 2.0 4.0 0.00 0.00 0.00 84 1016.0
20260906013658 72 46 2.0 6.0 0.00 0.00 0.00 84 1015.7
20260906013501 72 79 2.0 4.0 0.00 0.00 0.00 84 1015.7
20260906013356 72 79 2.0 4.0 0.00 0.00 0.00 84 1015.7
20260906013158 72 79 2.0 4.0 0.00 0.00 0.00 84 1015.7
20260906013024 72 76 2.0 4.0 0.00 0.00 0.00 83 1015.5
20260906012658 72 76 2.0 4.0 0.00 0.00 0.00 83 1015.5
20260906012525 72 49 2.0 4.0 0.00 0.00 0.00 83 1015.4
20260906012158 72 49 2.0 4.0 0.00 0.00 0.00 83 1015.4
20260906012035 72 76 2.0 4.0 0.00 0.00 0.00 83 1015.4
20260906011730 72 76 2.0 4.0 0.00 0.00 0.00 83 1015.4
20260906011658 72 76 2.0 4.0 0.00 0.00 0.00 83 1015.4
20260906011628 72 55 3.0 4.0 0.00 0.00 0.00 82 1015.3
20260906011229 72 55 3.0 4.0 0.00 0.00 0.00 82 1015.3
20260906011158 72 55 3.0 4.0 0.00 0.00 0.00 82 1015.3
20260906011000 73 49 3.0 6.0 0.00 0.00 0.00 82 1015.1
20260906010732 73 49 3.0 6.0 0.00 0.00 0.00 82 1015.1
20260906010658 73 49 3.0 6.0 0.00 0.00 0.00 82 1015.1
20260906010158 73 49 2.0 5.0 0.00 0.00 0.00 82 1015.1
20260906005729 73 50 2.0 4.0 0.00 0.00 0.00 82 1014.9
20260906005658 73 50 2.0 4.0 0.00 0.00 0.00 82 1014.9
20260906005438 73 68 3.0 7.0 0.00 0.00 0.00 82 1014.6
20260906005231 73 68 3.0 7.0 0.00 0.00 0.00 82 1014.6
20260906005158 73 68 3.0 7.0 0.00 0.00 0.00 82 1014.6
20260906005028 74 96 3.0 6.0 0.00 0.00 0.00 81 1014.5
20260906004729 74 96 3.0 6.0 0.00 0.00 0.00 81 1014.5
20260906004658 74 96 3.0 6.0 0.00 0.00 0.00 81 1014.5
20260906004517 74 61 2.0 4.0 0.00 0.00 0.00 80 1014.4
20260906004230 74 61 2.0 4.0 0.00 0.00 0.00 80 1014.4
20260906004158 74 61 2.0 4.0 0.00 0.00 0.00 80 1014.4
20260906003729 74 99 2.0 4.0 0.00 0.00 0.00 80 1014.2
20260906003658 74 99 2.0 4.0 0.00 0.00 0.00 80 1014.2
20260906003158 75 120 3.0 4.0 0.00 0.00 0.00 79 1014.1
20260906003049 75 91 3.0 7.0 0.00 0.00 0.00 79 1014.0
20260906002658 75 91 3.0 7.0 0.00 0.00 0.00 79 1014.0
20260906002502 75 93 3.0 5.0 0.00 0.00 0.00 78 1013.7
20260906002158 75 93 3.0 5.0 0.00 0.00 0.00 78 1013.7
20260906001731 76 126 4.0 8.0 0.00 0.00 0.00 78 1013.7
20260906001658 76 126 4.0 8.0 0.00 0.00 0.00 78 1013.7
20260906001412 76 115 4.0 7.0 0.00 0.00 0.00 77 1013.7
20260906001158 76 115 4.0 7.0 0.00 0.00 0.00 77 1013.7
20260906001058 76 99 5.0 9.0 0.00 0.00 0.00 77 1013.6
20260906000809 76 99 5.0 9.0 0.00 0.00 0.00 77 1013.6
20260906000729 76 99 5.0 9.0 0.00 0.00 0.00 77 1013.6
20260906000658 76 99 5.0 9.0 0.00 0.00 0.00 77 1013.6
20260906000158 76 114 4.0 10.0 0.00 0.00 0.00 76 1013.8
20260905235658 76 122 4.0 8.0 0.00 0.00 0.00 76 1013.8
20260905235158 77 159 5.0 11.0 0.00 0.00 0.00 76 1013.8
20260905234659 77 121 5.0 10.0 0.00 0.00 0.00 75 1013.6
20260905234158 77 121 5.0 11.0 0.00 0.00 0.00 75 1013.6
20260905233812 77 92 5.0 10.0 0.00 0.00 0.00 74 1013.6
20260905233736 77 92 5.0 10.0 0.00 0.00 0.00 74 1013.6
20260905233658 77 92 5.0 10.0 0.00 0.00 0.00 74 1013.6
20260905233158 78 121 6.0 12.0 0.00 0.00 0.00 74 1013.7
20260905232736 78 114 6.0 13.0 0.00 0.00 0.00 74 1013.5
20260905232658 78 114 6.0 13.0 0.00 0.00 0.00 74 1013.5
20260905232158 78 109 7.0 12.0 0.00 0.00 0.00 74 1013.2
20260905231658 78 118 7.0 12.0 0.00 0.00 0.00 72 1013.3
20260905231158 79 106 7.0 10.0 0.00 0.00 0.00 72 1013.3
20260905230658 79 105 7.0 15.0 0.00 0.00 0.00 71 1013.5
20260905230158 79 124 7.0 14.0 0.00 0.00 0.00 70 1013.8
20260905225658 79 88 7.0 13.0 0.00 0.00 0.00 70 1013.5
20260905225158 80 137 6.0 11.0 0.00 0.00 0.00 69 1013.5
20260905224730 80 103 6.0 12.0 0.00 0.00 0.00 70 1013.5
20260905224658 80 103 6.0 12.0 0.00 0.00 0.00 70 1013.5
20260905224158 80 79 6.0 12.0 0.00 0.00 0.00 71 1013.7
20260905223658 80 55 5.0 10.0 0.00 0.00 0.00 70 1013.7
20260905223158 80 112 6.0 10.0 0.00 0.00 0.00 69 1013.7
20260905223115 80 44 7.0 14.0 0.00 0.00 0.00 68 1013.8
20260905222658 80 44 7.0 14.0 0.00 0.00 0.00 68 1013.8
20260905222158 80 109 6.0 11.0 0.00 0.00 0.00 68 1013.9
20260905221731 80 108 6.0 13.0 0.00 0.00 0.00 68 1013.9
20260905221658 80 108 6.0 13.0 0.00 0.00 0.00 68 1013.9
20260905221158 80 88 7.0 11.0 0.00 0.00 0.00 68 1014.0
20260905220658 80 96 7.0 13.0 0.00 0.00 0.00 67 1013.9
20260905220509 80 113 7.0 12.0 0.00 0.00 0.00 68 1014.0
20260905220159 80 78 7.0 12.0 0.00 0.00 0.00 68 1013.9
20260905215658 80 113 7.0 12.0 0.00 0.00 0.00 68 1014.0
20260905215159 81 88 6.0 12.0 0.00 0.00 0.00 68 1014.1
20260905214802 81 67 6.0 13.0 0.00 0.00 0.00 69 1014.1
20260905214732 81 67 6.0 13.0 0.00 0.00 0.00 69 1014.1
20260905214659 81 67 6.0 13.0 0.00 0.00 0.00 69 1014.1
20260905214159 81 92 5.0 10.0 0.00 0.00 0.00 69 1014.1
20260905213659 81 87 6.0 11.0 0.00 0.00 0.00 69 1014.3
20260905213159 80 96 7.0 12.0 0.00 0.00 0.00 70 1014.3
20260905213005 80 90 5.0 9.0 0.00 0.00 0.00 71 1014.4
20260905212659 80 96 7.0 13.0 0.00 0.00 0.00 70 1014.3
20260905212159 80 69 6.0 12.0 0.00 0.00 0.00 70 1014.3
20260905211731 80 90 5.0 9.0 0.00 0.00 0.00 71 1014.4
20260905211659 80 90 5.0 9.0 0.00 0.00 0.00 71 1014.4
20260905211618 80 78 6.0 10.0 0.00 0.00 0.00 72 1014.2
20260905211159 80 78 6.0 10.0 0.00 0.00 0.00 72 1014.2
20260905210731 80 98 7.0 12.0 0.00 0.00 0.00 72 1014.2
20260905210659 80 98 7.0 12.0 0.00 0.00 0.00 72 1014.2
20260905210159 80 71 6.0 13.0 0.00 0.00 0.00 72 1014.1
20260905205659 80 101 5.0 12.0 0.00 0.00 0.00 73 1014.1
20260905205159 80 65 5.0 11.0 0.00 0.00 0.00 73 1014.1
20260905204742 80 100 5.0 10.0 0.00 0.00 0.00 75 1014.1
20260905204659 80 100 5.0 10.0 0.00 0.00 0.00 75 1014.1
20260905204159 80 114 5.0 10.0 0.00 0.00 0.00 75 1014.2
20260905203733 79 59 5.0 11.0 0.00 0.00 0.00 75 1014.3
20260905203659 79 59 5.0 11.0 0.00 0.00 0.00 75 1014.3
20260905203159 79 80 6.0 11.0 0.00 0.00 0.00 76 1014.2
20260905202659 79 105 6.0 11.0 0.00 0.00 0.00 76 1014.4
20260905202159 79 78 6.0 11.0 0.00 0.00 0.00 77 1014.5
20260905201700 79 108 5.0 12.0 0.00 0.00 0.00 77 1014.9
20260905201659 79 85 5.0 15.0 0.00 0.00 0.00 77 1014.7
20260905201159 79 108 5.0 12.0 0.00 0.00 0.00 77 1014.9
20260905200738 79 78 5.0 11.0 0.00 0.00 0.00 77 1015.2
20260905200659 79 78 5.0 11.0 0.00 0.00 0.00 77 1015.2